Location: Lane
(33.5226°N, 79.8788°W)
Time: 00:37:16
(UTC+00:00)

Vanguard 1 Rocket - Pass Details

Date: 06 October 2022
Orbit: 650 x 4225 km, 34.3° (Epoch: 05 December)

Event Time Altitude Azimuth Distance (km) Brightness Sun altitude
Rises 01:31:53 0° 259° (WSW) 8,283 13.1 -32.5°
Reaches altitude 10° 01:38:06 10° 260° (W) 6,969 12.5 -33.7°
Maximum altitude 01:59:31 89° 352° (N) 2,471 9.3 -37.9°
Enters shadow 02:01:39 71° 80° (E) 2,390 9.1 -38.3°
